User: anonymous   Login
Location: Unspecified
(0.0000°N, 0.0000°E)
Time: 22:22:05
(UTC+00:00)
Language:

STARLINK-6223 - Orbit

View from above orbital plane
View from above orbital plane
View from above satellite
View from above satellite

Ground track
Ground track

The orbit is defined by the following mean orbital elements,

1 57057U          26145.11710885 +.00000000 +00000-0 +21761-4 0 00007
2 57057  43.0049  38.7861 0001343 268.4209  91.6489 15.27578640    03
Epoch (UTC): 25 May 2026 02:48:38
Eccentricity: 0.0001343
inclination: 43.0049°
perigee height: 482 km
apogee height: 484 km
right ascension of ascending node: 38.7861°
argument of perigee: 268.4209°
revolutions per day: 15.27578640
mean anomaly at epoch: 91.6489°

The dashed part of the orbit path shows where the satellite is in the earth's shadow,  

DLR